This is the latest recevied weather packets stored in our database for station/object N8RJH-13. If no packets are shown the sender has not sent any weather packets the latest 10 day(s).
| Time | Temp. | Humidity | Pressure | Rain* | Wind** | Luminosity | Snow |
|---|---|---|---|---|---|---|---|
| 1787605626 | 30.56° C | 51% | 1016.9 hPa | - | - | - | - |
| 1787604996 | 30.56° C | 51% | 1016.9 hPa | - | - | - | - |
| 1787604367 | 30.56° C | 51% | 1016.9 hPa | - | - | - | - |
| 1787603737 | 30.56° C | 51% | 1016.8 hPa | - | - | - | - |
| 1787603096 | 31.11° C | 50% | 1017 hPa | - | - | - | - |
| 1787602467 | 31.11° C | 51% | 1016.9 hPa | - | - | - | - |
| 1787601842 | 31.67° C | 49% | 1017.1 hPa | - | - | - | - |
| 1787601219 | 31.11° C | 50% | 1017 hPa | - | - | - | - |
| 1787600586 | 31.67° C | 51% | 1017.1 hPa | - | - | - | - |
| 1787599974 | 31.11° C | 49% | 1017 hPa | - | - | - | - |
| 1787599343 | 30.56° C | 52% | 1017.3 hPa | - | - | - | - |
| 1787598727 | 30.56° C | 51% | 1017.2 hPa | - | - | - | - |
| 1787598117 | 30.56° C | 53% | 1017.3 hPa | - | - | - | - |
| 1787597487 | 30.56° C | 53% | 1017.3 hPa | - | - | - | - |
| 1787596867 | 30° C | 55% | 1017.2 hPa | - | - | - | - |
| 1787596228 | 29.44° C | 55% | 1017.5 hPa | - | - | - | - |
| 1787595596 | 29.44° C | 56% | 1017.5 hPa | - | - | - | - |
| 1787594966 | 29.44° C | 56% | 1017.4 hPa | - | - | - | - |
| 1787594347 | 28.89° C | 57% | 1017.4 hPa | - | - | - | - |
| 1787593726 | 28.33° C | 58% | 1017.5 hPa | - | - | - | - |
| 1787593108 | 28.33° C | 58% | 1017.7 hPa | - | - | - | - |
| 1787592486 | 27.78° C | 59% | 1017.7 hPa | - | - | - | - |
| 1787591853 | 27.22° C | 61% | 1018.1 hPa | - | - | - | - |
| 1787591227 | 27.22° C | 61% | 1018.1 hPa | - | - | - | - |
| 1787590617 | 26.67° C | 61% | 1018.2 hPa | - | - | - | - |
* Rain since midnight (hover to see other rain measurements)
** Current wind speed in m/s (hover to see current wind gust speed)